San Luis Potosi, Mexico

1:09 AM CDT on April 26, 2017 (GMT -0500)
Ponciano Arriaga International

Weather History for MMSP - March, 2013

Change the Weather History Date:

Friday, March 29, 2013

  Actual Average Record
Temperature  
Mean Temperature 62 °F -  
Max Temperature 85 °F 78 °F 89 °F (2011)
Min Temperature 39 °F 47 °F 39 °F (2013)
Degree Days  
Heating Degree Days 3    
Growing Degree Days 12 (Base 50)    
Moisture  
Dew Point 42 °F    
Average Humidity 56    
Maximum Humidity 100    
Minimum Humidity 6    
Precipitation  
Precipitation 0.00 in - - ()
Sea Level Pressure  
Sea Level Pressure 30.09 in    
Wind  
Wind Speed 1 mph ()    
Max Wind Speed 16 mph    
Max Gust Speed -    
Visibility 9.9 miles    
Events      
Averages and records for this station are not official NWS values.
T = Trace of Precipitation, MM = Missing Value Source: Averaged Metar Reports

Daily Weather History Graph

Daily Weather History Graph

Search for Another Location

Airport or City:

Trip Planner

Search our weather history database for the weather conditions in past years. The results will help you decide how hot, cold, wet, or windy it might be!

Date:

Astronomy

Mar. 29, 2013 Rise Set
Actual Time 6:38 AM CST 6:58 PM CST
Civil Twilight 6:16 AM CST 7:20 PM CST
Nautical Twilight 5:50 AM CST 7:46 PM CST
Astronomical Twilight 5:24 AM CST 8:13 PM CST
Moon 9:35 PM CST (3/29) 8:10 AM CST (3/29)
Length of Visible Light 13h 03m
Length of Day
12h 19m
Waning Gibbous, 93% of the Moon is Illuminated
Mar 29
Waning Gibbous
Apr 2
Last Quarter
Apr 10
New
Apr 18
First Quarter
Apr 25
Full

Hourly Weather History & Observations

Time (CST) Temp. Dew Point Humidity Pressure Visibility Wind Dir Wind Speed Gust Speed Precip Events Conditions
12:40 AM 53.6 °F 48.2 °F 82% 30.30 in 10.0 mi Calm Calm - N/A   Clear
1:40 AM 51.8 °F 48.2 °F 88% 30.29 in 10.0 mi Calm Calm - N/A   Clear
2:49 AM 50.0 °F 48.2 °F 94% 29.91 in 6.0 mi Calm Calm - N/A   Clear
2:50 AM 50 °F 47 °F 86% 29.99 in 5 mi ENE 2.2 mph - -  
3:49 AM 50.0 °F 48.2 °F 94% 30.25 in 6.0 mi Calm Calm - N/A   Clear
4:48 AM 48.2 °F 46.4 °F 93% 30.24 in 6.0 mi Calm Calm - N/A   Clear
5:47 AM 44.6 °F 44.6 °F 100% 29.95 in 4.0 mi Calm Calm - N/A   Clear
5:50 AM 45 °F 41 °F 82% 30.11 in 5 mi North 2.2 mph - -  
6:47 AM 44.6 °F 44.6 °F 100% 30.29 in 5.0 mi Calm Calm - N/A   Clear
7:40 AM 48.2 °F 46.4 °F 93% 30.31 in 6.0 mi Calm Calm - N/A   Clear
8:44 AM 57.2 °F 50.0 °F 77% 30.00 in 7.0 mi Calm Calm - N/A   Clear
8:45 AM 56 °F 50 °F 75% 30.21 in 7 mi Calm Calm - -   Haze
9:50 AM 62.6 °F 48.2 °F 59% 30.34 in 10.0 mi Calm Calm - N/A   Clear
10:42 AM 64.4 °F 48.2 °F 56% 30.32 in 12.0 mi Calm Calm - N/A   Clear
11:44 AM 69.8 °F 39.2 °F 33% 29.94 in 15.0 mi Calm Calm - N/A   Clear
11:45 AM 72 °F 54 °F 42% 30.13 in 7 mi Calm Calm - -   Haze
12:43 PM 73.4 °F 35.6 °F 25% 30.36 in 15.0 mi Calm Calm - N/A   Partly Cloudy
1:42 PM 78.8 °F 24.8 °F 14% 30.23 in 15.0 mi East 4.6 mph - N/A   Mostly Cloudy
2:41 PM 80.6 °F 26.6 °F 14% 29.78 in 15.0 mi South 6.9 mph - N/A   Mostly Cloudy
2:50 PM 83 °F 54 °F 27% 29.91 in 12 mi North 2.2 mph - -  
3:40 PM 82.4 °F 23.0 °F 11% 30.15 in 15.0 mi North 6.9 mph - N/A   Scattered Clouds
4:43 PM 84.2 °F 19.4 °F 9% 30.13 in 15.0 mi Calm Calm - N/A   Scattered Clouds
5:43 PM 84.2 °F 8.6 °F 6% 29.73 in 15.0 mi West 16.1 mph - N/A   Scattered Clouds
5:50 PM 83 °F 55 °F 28% 29.75 in 12 mi WNW 2.2 mph - -  
6:40 PM 75.2 °F 37.4 °F 25% 30.14 in 12.0 mi East 13.8 mph - N/A   Scattered Clouds
7:43 PM 69.8 °F 42.8 °F 38% 30.16 in 12.0 mi ESE 6.9 mph - N/A   Scattered Clouds
8:49 PM 66.2 °F 42.8 °F 43% 29.82 in 12.0 mi Calm Calm - N/A   Scattered Clouds
8:50 PM 67 °F 51 °F 45% 29.74 in 5 mi South 4.5 mph - -  
9:40 PM 64.4 °F 44.6 °F 49% 30.20 in 12.0 mi Calm Calm - N/A   Clear
10:58 PM 57.2 °F 46.4 °F 67% 30.23 in 10.0 mi Calm Calm - N/A   Clear
11:41 PM 55.4 °F 46.4 °F 72% 29.86 in 10.0 mi North 6.9 mph - N/A   Clear